Location: Alafon
(8.4500°N, 4.2333°E)
Time: 14:56:29
(UTC+00:00)

Vanguard 1 Rocket - Pass Details

Date: 29 July 2021
Orbit: 650 x 4226 km, 34.3° (Epoch: 23 September)

Event Time Altitude Azimuth Distance (km) Brightness Sun altitude
Rises 05:04:48 0° 216° (SW) 7,672 11.6 -7.8°
Reaches altitude 10° 05:10:22 10° 208° (SSW) 6,985 11.5 -6.5°
Maximum altitude 05:33:42 42° 144° (SE) 5,143 11.4 -1.0°
Drops below altitude 10° 05:53:58 10° 80° (E) 6,275 14.0 3.7°
Sets 05:58:25 0° 73° (ENE) 6,891 15.0 4.8°
